SL-14 DEB, 45296

Orbit data source: Space-Track

SL-14 DEB, 45296 is space debris in LEO originally from a launch on Thu, 15 Aug 1991 UTC launched from the Plesetsk Missile And Space Complex (PKMTR). Debris objects in space refer to the collection of defunct objects orbiting the Earth. Examples of debris include non-operational satellites, rocket bodies, and fragments generated from explosions, collisions, or faulty payload assembly.

Loading next visibility...
Identifier
45296, 1991-056AJ
Orbit
LEO
Last TLE update
7 hours ago
Origin
Manufacturer
Unknown
Mission
Spacecraft
Bus & Motor
Unknown
Mass
Unknown
Launch date (UTC)
1991-08-15 (34 years ago)
Launch vehicle
Unknown
Launch site
Plesetsk Missile And Space Complex (PKMTR)
Object type
Payload
Rocket body
Debris
Shape & HBR
Unknown
Radar Cross Section
Small (<0.1 m²)

Expand to show TLE details & history

TLE from 7 hours ago
0 SL-14 DEB
1 45296U 91056AJ  25200.21444910  .00003783  00000-0  32756-2 0  9997
2 45296  82.6369 276.4891 0214711 125.4099 236.7320 13.76059808268416
Epoch: 2025-07-19T05:08Z
TLE epoch observation values (Epoch: 2025-07-19T05:08:48.402Z)
Latitude
-0.00004°
Longitude
-97.96735°
Altitude
1,069.779 km
Speed
7.273 km/s
True Right ascension
18h 25m 57s
True Declination
0° 00' 00"
Sunlit
Object was in full shadow at epoch
Visualization orbit readout
Latitude
-15.45357°
Longitude
-100.22697°
Altitude
1,103.651 km
Speed
7.24 km/s
Apparent Right ascension
16h 11m 54s
Apparent Declination
-32° 58' 59"
Sunlit
Object is in full shadow
Visualization observer readout
Local Sidereal Time
00:52:40
Azimuth
263.749° W
Elevation
-49.864°
Doppler factor
1
Orbital elements
Apogee altitude
1,132.934 km
Perigee altitude
817.172 km
Semi-major axis
7,353.19 km
Eccentricity
0.02147
Inclination
82.6369°
RAAN
276.4891°
Arg. of periapsis
125.4099°
True anomaly
234.70511°
Mean anomaly
236.732°
Eccentric anomaly
235.71554°
Mean motion
3.44215 °/min
Orbital period
104.59 mins
BSTAR
0.0032756
Loading maneuver chart data...
Loading SW <> Apogee altitude chart data...
Loading historical data...
Loading historical data...
Loading historical data...
Loading historical data...
Loading historical data...
Loading historical data...
Loading historical data...
|